DMSP 5D-2 F13 DEB, 40414

Orbit data source: Space-Track

DMSP 5D-2 F13 DEB, 40414 is space debris in SSO originally from a launch on Fri, 24 Mar 1995 UTC launched from the Air Force Western Test Range (AFWTR). Debris objects in space refer to the collection of defunct objects orbiting the Earth. Examples of debris include non-operational satellites, rocket bodies, and fragments generated from explosions, collisions, or faulty payload assembly.

Loading next visibility...
DMSP 5D-2 F13 DEB details
Identifier
40414, 1995-015AB
Orbit
SSO
Last TLE update15 hours ago
Origin
Flag of USUSAF SMC (US)
ManufacturerUnknown
MissionSpacecraft
Bus & MotorUnknown
MassUnknown
Launch date (UTC)
1995-03-24 (30 years ago)
Launch vehicleUnknown
Launch site
Air Force Western Test Range (AFWTR)
Object type
Payload
Rocket body
Debris
Shape & HBRUnknown
Radar Cross SectionSmall (<0.1 m²)

Expand to show TLE details & history

TLE from 15 hours ago
0 DMSP 5D-2 F13 DEB
1 40414U 95015AB  25045.02806675  .00004261  00000-0  16834-2 0  9990
2 40414  98.6643  70.4897 0010509 274.5306  85.4675 14.29501494520436
Epoch: 2025-02-14T00:40Z
Definitive object data (Epoch: 2025-02-14T00:40:24.967Z)
Latitude-0.00004°
Longitude-83.91004°
Altitude795.739 km
Speed7.456 km/s
True Right ascension04h 41m 57s
True Declination0° 00' 00"
Sunlit
Object was in daylight at TLE epoch
Visualization TLE readout
Latitude-79.43012°
Longitude42.37625°
Altitude813.916 km
Speed7.449 km/s
Apparent Right ascension07h 02m 23s
Apparent Declination-67° 07' 56"
Sunlit
Object is in daylight
Visualization observer readout
Local Sidereal Time17:59:44
Azimuth192.674° SSW
Elevation-61.428°
Doppler factor1
Orbital elements
Apogee altitude798.075 km
Perigee altitude783.008 km
Semi-major axis7,168.678 km
Eccentricity0.0010509
Inclination98.6643°
RAAN70.4897°
Arg. of periapsis274.5306°
True anomaly85.58756°
Mean anomaly85.4675°
Eccentric anomaly85.52753°
Mean motion3.57589 °/min
BSTAR0.0016834
Orbital period100.67 mins
Loading maneuver chart data...

DMSP 5D-2 F13 DEB Visibility forecast

Observer location: undefined°, undefined

Span
Click to sort rows by Start time (UTC) header in descending order
Start Az.
Max El. time (UTC)
Max El. Az.
Max El.
End time (UTC)
End Az.
7 mins2025-02-15 00:20:36.904Z108.261° ESE2025-02-15 00:24:36.904Z56.276° ENE19.09°2025-02-15 00:27:36.904Z19.759° NNE
8 mins2025-02-15 01:59:36.904Z190.418° SSW2025-02-15 02:03:36.904Z273.04° WNW37.138°2025-02-15 02:07:36.904Z332.822° NNW
8 mins2025-02-15 14:13:36.904Z25.331° NE2025-02-15 14:17:36.904Z129.805° SE40.658°2025-02-15 14:21:36.904Z181.001° SSW
|